Weather History for Trabzon, Turkey

Change the Weather History Date:

Wednesday, November 20, 2013

  Actual Average Record
Temperature  
Mean Temperature 54 °F -  
Max Temperature 60 °F 54 °F 71 °F (1997)
Min Temperature 48 °F 44 °F 39 °F (2006)
Degree Days  
Heating Degree Days 11    
Growing Degree Days 4 (Base 50)    
Moisture  
Dew Point 46 °F    
Average Humidity 74    
Maximum Humidity 82    
Minimum Humidity 56    
Precipitation  
Precipitation 0.00 in - - ()
Sea Level Pressure  
Sea Level Pressure 30.11 in    
Wind  
Wind Speed 4 mph ()    
Max Wind Speed 7 mph    
Max Gust Speed -    
Visibility 7.0 miles    
Events      
Averages and records for this station are not official NWS values.
T = Trace of Precipitation, MM = Missing Value Source: Averaged Metar Reports

Daily Weather History Graph

Daily Weather History Graph

Search for Another Location

Airport:

Trip Planner

Search our weather history database for the weather conditions in past years. The results will help you decide how hot, cold, wet, or windy it might be!

Date:

Astronomy

Nov. 20, 2013 Rise Set
Actual Time 6:14 AM EET 3:58 PM EET
Civil Twilight 5:44 AM EET 4:28 PM EET
Nautical Twilight 5:10 AM EET 5:01 PM EET
Astronomical Twilight 4:37 AM EET 5:34 PM EET
Moon 6:22 PM EET (11/20) 8:23 AM EET (11/20)
Length of Visible Light 10h 44m
Length of Day
9h 44m
Waning Gibbous, 93% of the Moon is Illuminated
Nov 20
Waning Gibbous
Nov 25
Last Quarter
Dec 3
New
Dec 9
First Quarter
Dec 17
Full

Hourly Weather History & Observations

Time (EET) Temp. Dew Point Humidity Pressure Visibility Wind Dir Wind Speed Gust Speed Precip Events Conditions
12:20 AM 51.8 °F 46.4 °F 82% 30.18 in - South 6.9 mph - N/A   Clear
12:50 AM 51.8 °F 44.6 °F 76% 30.18 in - South 4.6 mph - N/A   Clear
1:20 AM 50.0 °F 44.6 °F 82% 30.18 in - SSW 3.5 mph - N/A   Clear
1:50 AM 51.8 °F 44.6 °F 76% 30.18 in - South 4.6 mph - N/A   Clear
2:00 AM 51 °F 44 °F 68% 30.19 in 12 mi South 4.6 mph - -  
2:20 AM 50.0 °F 44.6 °F 82% 30.15 in - South 5.8 mph - N/A   Clear
2:50 AM 50.0 °F 44.6 °F 82% 30.15 in - South 4.6 mph - N/A   Clear
3:20 AM 50.0 °F 44.6 °F 82% 30.15 in - South 4.6 mph - N/A   Clear
3:50 AM 50.0 °F 44.6 °F 82% 30.15 in - South 5.8 mph - N/A   Clear
4:20 AM 50.0 °F 44.6 °F 82% 30.15 in - South 3.5 mph - N/A   Clear
4:50 AM 50.0 °F 42.8 °F 76% 30.15 in - South 4.6 mph - N/A   Clear
5:00 AM 49 °F 44 °F 76% 30.17 in 12 mi South 4.6 mph - -  
5:20 AM 48.2 °F 42.8 °F 82% 30.15 in - SSW 5.8 mph - N/A   Clear
5:50 AM 50.0 °F 42.8 °F 76% 30.15 in - South 4.6 mph - N/A   Clear
6:20 AM 48.2 °F 42.8 °F 82% 30.15 in - SSW 4.6 mph - N/A   Clear
6:50 AM 51.8 °F 42.8 °F 71% 30.15 in - South 4.6 mph - N/A   Clear
7:20 AM 51.8 °F 44.6 °F 76% 30.15 in - SSW 3.5 mph - N/A   Clear
7:50 AM 53.6 °F 46.4 °F 77% 30.15 in - Variable 1.2 mph - N/A   Clear
8:00 AM 53 °F 46 °F 68% 30.17 in 12 mi WSW 1.2 mph - -  
8:20 AM 59.0 °F 48.2 °F 67% 30.15 in - Calm Calm - N/A   Clear
8:50 AM 57.2 °F 46.4 °F 67% 30.15 in - East 4.6 mph - N/A   Clear
9:20 AM 59.0 °F 48.2 °F 67% 30.15 in - East 3.5 mph - N/A   Clear
9:50 AM 59.0 °F 48.2 °F 67% 30.12 in - Variable 2.3 mph - N/A   Clear
10:20 AM 59.0 °F 46.4 °F 63% 30.12 in - East 4.6 mph - N/A   Clear
10:50 AM 59.0 °F 48.2 °F 67% 30.12 in - East 6.9 mph - N/A   Clear
11:00 AM 59 °F 47 °F 56% 30.14 in 12 mi East 6.9 mph - -   Clear
11:20 AM 59.0 °F 48.2 °F 67% 30.09 in - NE 4.6 mph - N/A   Clear
11:50 AM 59.0 °F 48.2 °F 67% 30.09 in - East 4.6 mph - N/A   Clear
12:20 PM 59.0 °F 48.2 °F 67% 30.09 in - East 5.8 mph - N/A   Clear
12:50 PM 59.0 °F 50.0 °F 72% 30.06 in - ENE 4.6 mph - N/A   Clear
1:20 PM 60.8 °F 48.2 °F 63% 30.06 in - Calm Calm - N/A   Clear
1:50 PM 59.0 °F 50.0 °F 72% 30.06 in - ENE 4.6 mph - N/A   Clear
2:00 PM 60 °F 50 °F 61% 30.09 in 12 mi ENE 4.6 mph - -   Clear
2:50 PM 59.0 °F 50.0 °F 72% 30.06 in - ENE 3.5 mph - N/A   Clear
3:20 PM 59.0 °F 50.0 °F 72% 30.06 in - ESE 2.3 mph - N/A   Clear
3:50 PM 57.2 °F 50.0 °F 77% 30.06 in - Variable 1.2 mph - N/A   Clear
4:20 PM 55.4 °F 50.0 °F 82% 30.06 in 5.6 mi Calm Calm - N/A   Mist
4:50 PM 53.6 °F 48.2 °F 82% 30.06 in 1.6 mi SSW 3.5 mph - N/A   Mist
5:00 PM 54 °F 49 °F 77% 30.09 in 2 mi SSW 3.5 mph - -   Mist
5:20 PM 53.6 °F 48.2 °F 82% 30.06 in 1.1 mi South 4.6 mph - N/A   Mist
5:50 PM 53.6 °F 48.2 °F 82% 30.06 in 5.6 mi Calm Calm - N/A   Mist
6:20 PM 53.6 °F 48.2 °F 82% 30.06 in 5.6 mi SW 2.3 mph - N/A   Mist
6:50 PM 53.6 °F 48.2 °F 82% 30.06 in 5.6 mi SSW 6.9 mph - N/A   Mist
7:20 PM 53.6 °F 46.4 °F 77% 30.06 in 5.0 mi Variable 2.3 mph - N/A   Unknown
7:50 PM 53.6 °F 46.4 °F 77% 30.06 in - South 3.5 mph - N/A   Clear
8:00 PM 54 °F 46 °F 65% 30.08 in 12 mi South 3.5 mph - -  
8:20 PM 53.6 °F 46.4 °F 77% 30.06 in 3.7 mi Variable 1.2 mph - N/A   Unknown
8:50 PM 53.6 °F 44.6 °F 72% 30.04 in 4.3 mi South 3.5 mph - N/A   Unknown
9:20 PM 51.8 °F 44.6 °F 76% 30.06 in 6.2 mi Calm Calm - N/A   Partly Cloudy
9:50 PM 51.8 °F 44.6 °F 76% 30.04 in 6.2 mi Calm Calm - N/A   Partly Cloudy
10:20 PM 51.8 °F 42.8 °F 71% 30.04 in 6.2 mi South 3.5 mph - N/A   Partly Cloudy
10:50 PM 51.8 °F 42.8 °F 71% 30.04 in 6.2 mi SW 3.5 mph - N/A   Partly Cloudy
11:00 PM 53 °F 43 °F 59% 30.06 in 12 mi SSW 3.5 mph - -   Scattered Clouds
11:20 PM 51.8 °F 42.8 °F 71% 30.04 in 6.2 mi SSW 4.6 mph - N/A   Partly Cloudy
11:50 PM 51.8 °F 42.8 °F 71% 30.04 in 6.2 mi Calm Calm - N/A   Partly Cloudy